Location: Middelsbur
(53.6609°N, 7.5020°E)
Time: 23:50:46
(UTC+00:00)

Cosmos 2151 - Pass Details

Date: 06 July 2020
Orbit: 580 x 602 km, 82.5° (Epoch: 14 August)

Event Time Altitude Azimuth Distance (km) Brightness Sun altitude
Exits shadow 23:32:14 11° 227° (SW) 1,853 5.1 -13.8°
Maximum altitude 23:35:53 33° 290° (WNW) 1,010 4.3 -13.8°
Drops below altitude 10° 23:39:48 10° 356° (N) 1,942 7.1 -13.8°
Sets 23:42:11 0° 6° (N) 2,844 8.5 -13.8°
